TimeCDT,TemperatureF,Dew PointF,Humidity,Sea Level PressureIn,VisibilityMPH,Wind Direction,Wind SpeedMPH,Gust SpeedMPH,PrecipitationIn,Events,Conditions,WindDirDegrees,DateUTC
12:56 AM,25.0,21.9,88,30.14,-9999.0,Calm,Calm,-,N/A,,Unknown,0,2012-11-02 05:56:00
1:56 AM,27.0,21.9,81,30.13,-9999.0,Calm,Calm,-,N/A,,Unknown,0,2012-11-02 06:56:00
2:56 AM,27.0,23.0,85,30.13,-9999.0,Calm,Calm,-,N/A,,Unknown,0,2012-11-02 07:56:00
3:56 AM,27.0,23.0,85,30.12,-9999.0,East,4.6,-,N/A,,Unknown,90,2012-11-02 08:56:00
4:56 AM,28.0,24.1,85,30.12,-9999.0,East,5.8,-,N/A,,Unknown,90,2012-11-02 09:56:00
5:56 AM,28.0,24.1,85,30.14,-9999.0,ESE,6.9,-,N/A,,Unknown,120,2012-11-02 10:56:00
6:56 AM,28.0,24.1,85,30.15,-9999.0,SE,5.8,-,N/A,,Unknown,130,2012-11-02 11:56:00
7:56 AM,28.0,24.1,85,30.17,-9999.0,Calm,Calm,-,N/A,,Unknown,0,2012-11-02 12:56:00
8:56 AM,28.9,25.0,85,30.20,-9999.0,East,3.5,-,N/A,,Unknown,90,2012-11-02 13:56:00
9:56 AM,30.0,25.0,82,30.20,-9999.0,SE,6.9,-,N/A,,Unknown,140,2012-11-02 14:56:00
10:56 AM,-9999,-9999,N/A,30.14,-9999.0,North,-9999.0,-,N/A,,Unknown,0,2012-11-02 15:56:00
11:56 AM,32.0,26.1,79,30.20,-9999.0,SSE,9.2,-,N/A,,Unknown,150,2012-11-02 16:56:00
12:56 PM,33.1,25.0,72,30.20,-9999.0,SSE,6.9,-,N/A,,Unknown,160,2012-11-02 17:56:00
1:56 PM,34.0,26.1,73,30.17,-9999.0,South,9.2,-,N/A,,Unknown,170,2012-11-02 18:56:00
2:56 PM,34.0,26.1,73,30.16,-9999.0,SE,8.1,-,N/A,,Unknown,140,2012-11-02 19:56:00
3:56 PM,34.0,26.1,73,30.16,-9999.0,SSE,5.8,-,N/A,,Unknown,160,2012-11-02 20:56:00
4:56 PM,35.1,26.1,70,30.17,-9999.0,SSE,3.5,-,N/A,,Unknown,160,2012-11-02 21:56:00
5:56 PM,35.1,26.1,70,30.16,-9999.0,SE,4.6,-,N/A,,Unknown,140,2012-11-02 22:56:00
6:56 PM,35.1,27.0,72,30.18,-9999.0,SE,3.5,-,N/A,,Unknown,130,2012-11-02 23:56:00
7:56 PM,35.1,27.0,72,30.19,-9999.0,Calm,Calm,-,N/A,,Unknown,0,2012-11-03 00:56:00
8:56 PM,34.0,28.0,79,30.19,-9999.0,SSE,3.5,-,N/A,,Unknown,150,2012-11-03 01:56:00
9:56 PM,34.0,28.0,79,30.19,-9999.0,SSE,3.5,-,N/A,,Unknown,150,2012-11-03 02:56:00
10:56 PM,34.0,28.0,79,30.14,-9999.0,South,3.5,-,N/A,,Unknown,190,2012-11-03 03:56:00
11:56 PM,34.0,28.0,79,30.19,-9999.0,South,3.5,-,N/A,,Unknown,170,2012-11-03 04:56:00